{"data":{"norad_id":57450,"epoch":"2026-05-25T03:21:03.227616Z","epoch_age_seconds":63153,"freshness":"FRESH","line1":"1 57450U 23105W   26145.13962069 -.00038118  00000+0 -13768-2 0  9995","line2":"2 57450  43.0041 177.1278 0001850 298.5920  61.4746 15.27719753157409","mean_motion":15.27719753,"eccentricity":0.000185,"inclination_deg":43.0041,"raan_deg":177.1278,"arg_perigee_deg":298.592,"mean_anomaly_deg":61.4746,"bstar":-0.0013768,"rev_number":15740,"period_min":94.258125364437,"perigee_km":481.3614151663,"apogee_km":483.89989919946,"semimajor_km":6860.7676571829,"source":"CELESTRAK","updated_at":"2026-05-25T13:38:18.322554Z"}}